QPF
0.01 0.01 0.03 0.03 0.04 0.02 0.01 0.02 0.01 0.02 0.04 0.03 0.02 0.03 0.04 0.06 0.09 0.11 0.08 0.06 0.05 0.07 0.07 0.08 0.11 0.11 0.10 0.14 0.12 0.08 0.07 0.07 0.06 0.06 0.06 0.08 0.07 0.08 0.15 0.20 0.13 0.10 0.09
0.01 0.01 0.02 0.04 0.04 0.02 0.01 0.01 0.01 0.02 0.02 0.02 0.02 0.03 0.05 0.09 0.12 0.11 0.08 0.05 0.05 0.07 0.09 0.09 0.10 0.10 0.11 0.14 0.13 0.11 0.10 0.09 0.07 0.06 0.08 0.08 0.07 0.10 0.20 0.22 0.13 0.08 0.05
0.01 0.00 0.01 0.04 0.04 0.02 0.01 0.01 0.01 0.01 0.01 0.01 0.02 0.03 0.06 0.10 0.10 0.06 0.05 0.05 0.05 0.09 0.12 0.09 0.09 0.11 0.12 0.10 0.10 0.09 0.09 0.10 0.10 0.08 0.07 0.05 0.05 0.06 0.06 0.06 0.07 0.05 0.04
0.15 0.11 0.04 0.04 0.05 0.03 0.01 0.01 0.01 0.01 0.01 0.01 0.02 0.02 0.05 0.07 0.08 0.04 0.04 0.04 0.05 0.09 0.13 0.12 0.11 0.11 0.08 0.08 0.08 0.06 0.06 0.07 0.07 0.07 0.05 0.03 0.03 0.04 0.04 0.04 0.03 0.04 0.04
0.23 0.16 0.06 0.05 0.05 0.03 0.01 0.01 0.01 0.01 0.01 0.01 0.01 0.02 0.04 0.06 0.07 0.06 0.03 0.04 0.06 0.09 0.14 0.14 0.09 0.07 0.07 0.08 0.06 0.05 0.04 0.04 0.05 0.04 0.03 0.03 0.02 0.04 0.04 0.03 0.02 0.03 0.04
0.11 0.09 0.06 0.05 0.04 0.02 0.01 0.01 0.01 0.01 0.01 0.01 0.01 0.02 0.03 0.05 0.07 0.07 0.03 0.03 0.05 0.07 0.08 0.09 0.07 0.07 0.06 0.06 0.05 0.05 0.04 0.04 0.03 0.02 0.03 0.04 0.02 0.03 0.04 0.04 0.03 0.03 0.05
0.02 0.03 0.05 0.05 0.03 0.01 0.01 0.01 0.01 0.01 0.01 0.01 0.02 0.02 0.03 0.04 0.06 0.05 0.03 0.03 0.04 0.06 0.06 0.06 0.06 0.05 0.05 0.05 0.05 0.05 0.05 0.04 0.02 0.01 0.03 0.05 0.03 0.03 0.05 0.05 0.04 0.04 0.04
0.06 0.07 0.07 0.05 0.02 0.01 0.01 0.01 0.01 0.01 0.01 0.01 0.01 0.02 0.03 0.04 0.04 0.03 0.03 0.03 0.03 0.03 0.05 0.05 0.05 0.04 0.04 0.04 0.04 0.04 0.03 0.04 0.01 0.01 0.01 0.03 0.04 0.03 0.04 0.05 0.04 0.05 0.04
0.02 0.03 0.02 0.01 0.01 0.01 0.01 0.01 0.00 0.01 0.01 0.01 0.01 0.01 0.03 0.04 0.03 0.03 0.03 0.04 0.03 0.03 0.04 0.04 0.04 0.03 0.03 0.04 0.03 0.03 0.03 0.03 0.01 0.01 0.01 0.01 0.03 0.05 0.06 0.05 0.04 0.05 0.05
0.00 0.01 0.01 0.01 0.00 0.00 0.01 0.01 0.00 0.01 0.01 0.01 0.02 0.02 0.04 0.03 0.03 0.04 0.03 0.04 0.03 0.03 0.03 0.04 0.04 0.03 0.03 0.04 0.03 0.03 0.03 0.02 0.00 0.00 0.00 0.01 0.03 0.04 0.06 0.05 0.05 0.04 0.04
0.01 0.01 0.01 0.02 0.01 0.00 0.00 0.00 0.01 0.01 0.01 0.02 0.03 0.05 0.04 0.02 0.01 0.02 0.03 0.03 0.03 0.03 0.03 0.04 0.04 0.04 0.04 0.03 0.04 0.03 0.02 0.01 0.00 0.00 0.00 0.01 0.03 0.05 0.05 0.05 0.06 0.04 0.04
0.01 0.01 0.02 0.02 0.02 0.01 0.00 0.00 0.00 0.00 0.01 0.01 0.02 0.02 0.02 0.01 0.01 0.01 0.02 0.02 0.03 0.05 0.04 0.04 0.04 0.04 0.02 0.02 0.04 0.03 0.01 0.00 0.00 0.00 0.00 0.01 0.03 0.04 0.05 0.05 0.05 0.05 0.05
0.01 0.01 0.02 0.02 0.02 0.01 0.01 0.00 0.00 0.00 0.01 0.00 0.00 0.01 0.01 0.00 0.00 0.00 0.01 0.02 0.02 0.03 0.03 0.03 0.03 0.01 0.01 0.01 0.02 0.02 0.01 0.00 0.00 0.00 0.01 0.02 0.03 0.05 0.07 0.08 0.06 0.05 0.05
0.01 0.01 0.01 0.01 0.01 0.01 0.01 0.01 0.00 0.00 0.00 0.00 0.00 0.01 0.01 0.00 0.00 0.00 0.01 0.03 0.02 0.02 0.02 0.02 0.01 0.01 0.00 0.01 0.01 0.01 0.01 0.00 0.00 0.00 0.01 0.02 0.04 0.05 0.06 0.07 0.06 0.05 0.06
0.01 0.02 0.02 0.02 0.02 0.01 0.01 0.01 0.01 0.02 0.01 0.01 0.00 0.01 0.01 0.01 0.03 0.04 0.03 0.04 0.04 0.03 0.03 0.02 0.01 0.01 0.01 0.01 0.02 0.02 0.02 0.01 0.01 0.01 0.01 0.02 0.03 0.03 0.04 0.07 0.07 0.07 0.07
0.03 0.03 0.04 0.03 0.03 0.03 0.02 0.02 0.01 0.01 0.02 0.01 0.01 0.02 0.01 0.01 0.02 0.02 0.03 0.07 0.05 0.03 0.02 0.01 0.01 0.02 0.02 0.02 0.02 0.02 0.02 0.02 0.01 0.01 0.01 0.02 0.02 0.03 0.05 0.07 0.07 0.07 0.08
0.04 0.03 0.04 0.04 0.04 0.04 0.03 0.02 0.02 0.02 0.02 0.02 0.01 0.02 0.01 0.01 0.02 0.02 0.04 0.05 0.03 0.02 0.01 0.01 0.01 0.01 0.02 0.02 0.02 0.02 0.02 0.02 0.01 0.02 0.02 0.02 0.02 0.04 0.04 0.06 0.06 0.07 0.08
0.04 0.05 0.05 0.05 0.05 0.05 0.04 0.03 0.02 0.02 0.02 0.02 0.02 0.01 0.01 0.02 0.02 0.02 0.02 0.02 0.01 0.01 0.01 0.01 0.01 0.01 0.02 0.02 0.02 0.02 0.02 0.01 0.01 0.01 0.02 0.03 0.02 0.02 0.03 0.06 0.06 0.07 0.06
0.04 0.05 0.04 0.04 0.05 0.06 0.07 0.06 0.04 0.03 0.03 0.03 0.02 0.02 0.02 0.02 0.01 0.01 0.01 0.01 0.01 0.01 0.01 0.02 0.02 0.01 0.03 0.03 0.02 0.02 0.02 0.01 0.01 0.01 0.02 0.03 0.03 0.03 0.04 0.06 0.07 0.07 0.07
0.03 0.03 0.03 0.03 0.04 0.05 0.06 0.08 0.06 0.03 0.04 0.03 0.02 0.02 0.02 0.03 0.03 0.03 0.03 0.02 0.02 0.02 0.02 0.02 0.02 0.01 0.02 0.03 0.03 0.02 0.02 0.02 0.02 0.02 0.04 0.04 0.03 0.03 0.04 0.05 0.07 0.08 0.09
0.03 0.04 0.03 0.02 0.03 0.04 0.07 0.10 0.10 0.07 0.05 0.04 0.03 0.03 0.02 0.03 0.05 0.04 0.04 0.03 0.01 0.01 0.01 0.01 0.01 0.01 0.01 0.02 0.03 0.02 0.03 0.04 0.05 0.05 0.04 0.03 0.03 0.03 0.04 0.06 0.08 0.11 0.10
0.02 0.02 0.02 0.01 0.01 0.03 0.06 0.08 0.08 0.09 0.08 0.07 0.06 0.04 0.03 0.02 0.02 0.02 0.02 0.02 0.01 0.01 0.01 0.00 0.01 0.01 0.01 0.02 0.03 0.03 0.04 0.05 0.06 0.03 0.03 0.03 0.03 0.04 0.05 0.07 0.08 0.07 0.09
0.02 0.02 0.02 0.02 0.02 0.02 0.03 0.03 0.04 0.04 0.05 0.05 0.04 0.03 0.02 0.01 0.01 0.01 0.01 0.01 0.01 0.01 0.01 0.00 0.01 0.01 0.01 0.02 0.02 0.02 0.03 0.05 0.04 0.02 0.02 0.02 0.02 0.03 0.04 0.05 0.05 0.04 0.05
0.02 0.02 0.02 0.02 0.01 0.01 0.02 0.02 0.03 0.02 0.03 0.03 0.02 0.03 0.03 0.02 0.01 0.01 0.02 0.02 0.01 0.02 0.01 0.01 0.01 0.02 0.02 0.02 0.02 0.02 0.02 0.03 0.04 0.03 0.02 0.01 0.02 0.02 0.02 0.03 0.03 0.03 0.04
0.02 0.02 0.02 0.02 0.02 0.01 0.02 0.02 0.03 0.03 0.02 0.02 0.02 0.03 0.04 0.03 0.02 0.02 0.01 0.01 0.01 0.01 0.02 0.02 0.01 0.02 0.02 0.02 0.01 0.02 0.03 0.03 0.02 0.02 0.02 0.02 0.01 0.01 0.02 0.01 0.02 0.02 0.02
0.03 0.03 0.03 0.02 0.02 0.02 0.02 0.02 0.02 0.02 0.02 0.02 0.02 0.02 0.02 0.03 0.03 0.03 0.02 0.02 0.02 0.02 0.02 0.02 0.02 0.02 0.02 0.02 0.01 0.01 0.01 0.02 0.02 0.02 0.02 0.02 0.02 0.01 0.01 0.01 0.01 0.02 0.01
MSLP
1007.25 1006.76 1006.39 1006.17 1006.07 1006.00 1005.91 1005.71 1005.39 1004.95 1004.43 1003.86 1003.30 1002.75 1002.17 1001.51 1000.70 999.69 998.47 997.11 995.71 994.43 993.45 992.92 992.93 993.50 994.57 995.97 997.54 999.08 1000.43 1001.50 1002.26 1002.73 1003.00 1003.17 1003.33 1003.56 1003.91 1004.38 1004.97 1005.64 1006.36
1007.24 1006.79 1006.47 1006.29 1006.21 1006.16 1006.07 1005.87 1005.55 1005.12 1004.61 1004.07 1003.55 1003.03 1002.49 1001.84 1001.02 999.98 998.70 997.25 995.76 994.39 993.33 992.74 992.71 993.26 994.34 995.77 997.38 998.98 1000.40 1001.56 1002.40 1002.94 1003.28 1003.50 1003.71 1003.97 1004.33 1004.81 1005.40 1006.07 1006.77
1007.21 1006.81 1006.55 1006.43 1006.40 1006.39 1006.33 1006.16 1005.85 1005.44 1004.95 1004.45 1003.96 1003.48 1002.97 1002.35 1001.56 1000.53 999.26 997.81 996.32 994.95 993.88 993.27 993.21 993.72 994.75 996.13 997.70 999.27 1000.69 1001.86 1002.74 1003.34 1003.74 1004.02 1004.27 1004.56 1004.93 1005.41 1005.98 1006.63 1007.30
1007.18 1006.85 1006.66 1006.61 1006.65 1006.70 1006.69 1006.56 1006.28 1005.89 1005.43 1004.95 1004.48 1004.03 1003.55 1002.98 1002.25 1001.29 1000.11 998.76 997.37 996.08 995.08 994.49 994.42 994.88 995.81 997.08 998.53 999.99 1001.33 1002.45 1003.32 1003.94 1004.38 1004.70 1004.98 1005.29 1005.67 1006.13 1006.67 1007.27 1007.91
1007.19 1006.93 1006.81 1006.84 1006.96 1007.08 1007.13 1007.04 1006.80 1006.43 1005.98 1005.51 1005.05 1004.62 1004.18 1003.66 1003.02 1002.18 1001.15 999.98 998.77 997.66 996.79 996.29 996.22 996.63 997.44 998.54 999.80 1001.09 1002.28 1003.30 1004.10 1004.71 1005.16 1005.50 1005.81 1006.13 1006.49 1006.92 1007.41 1007.95 1008.52
1007.27 1007.07 1007.02 1007.13 1007.31 1007.50 1007.60 1007.55 1007.33 1006.98 1006.54 1006.06 1005.61 1005.19 1004.77 1004.33 1003.78 1003.10 1002.27 1001.33 1000.37 999.48 998.80 998.42 998.39 998.74 999.42 1000.33 1001.37 1002.43 1003.43 1004.30 1005.01 1005.57 1006.01 1006.36 1006.68 1006.99 1007.33 1007.70 1008.13 1008.59 1009.09
1007.44 1007.29 1007.30 1007.46 1007.70 1007.93 1008.06 1008.04 1007.84 1007.49 1007.05 1006.56 1006.10 1005.68 1005.30 1004.91 1004.48 1003.97 1003.35 1002.66 1001.97 1001.34 1000.87 1000.62 1000.65 1000.96 1001.50 1002.22 1003.03 1003.86 1004.64 1005.34 1005.94 1006.44 1006.85 1007.20 1007.51 1007.81 1008.11 1008.43 1008.78 1009.16 1009.57
1007.73 1007.61 1007.65 1007.85 1008.11 1008.36 1008.51 1008.49 1008.29 1007.94 1007.49 1006.99 1006.53 1006.11 1005.75 1005.42 1005.09 1004.72 1004.30 1003.86 1003.41 1003.03 1002.77 1002.66 1002.75 1003.02 1003.45 1003.99 1004.58 1005.19 1005.78 1006.32 1006.80 1007.24 1007.62 1007.96 1008.27 1008.55 1008.81 1009.07 1009.33 1009.63 1009.96
1008.11 1008.01 1008.07 1008.27 1008.53 1008.77 1008.91 1008.88 1008.68 1008.33 1007.87 1007.38 1006.91 1006.50 1006.16 1005.87 1005.62 1005.37 1005.11 1004.86 1004.62 1004.44 1004.35 1004.37 1004.50 1004.75 1005.09 1005.48 1005.90 1006.33 1006.74 1007.15 1007.54 1007.93 1008.29 1008.63 1008.93 1009.19 1009.42 1009.62 1009.81 1010.02 1010.26
1008.54 1008.46 1008.53 1008.71 1008.95 1009.17 1009.27 1009.23 1009.02 1008.67 1008.22 1007.75 1007.30 1006.91 1006.60 1006.35 1006.15 1005.97 1005.82 1005.70 1005.60 1005.56 1005.59 1005.70 1005.87 1006.10 1006.37 1006.66 1006.95 1007.24 1007.54 1007.85 1008.17 1008.52 1008.87 1009.21 1009.51 1009.76 1009.96 1010.12 1010.25 1010.38 1010.54
1008.97 1008.91 1008.98 1009.15 1009.36 1009.53 1009.60 1009.54 1009.33 1009.01 1008.60 1008.17 1007.76 1007.41 1007.13 1006.91 1006.73 1006.61 1006.51 1006.45 1006.43 1006.46 1006.56 1006.71 1006.90 1007.13 1007.35 1007.57 1007.78 1007.99 1008.21 1008.46 1008.74 1009.07 1009.41 1009.75 1010.05 1010.30 1010.48 1010.60 1010.68 1010.74 1010.83
1009.33 1009.31 1009.39 1009.54 1009.72 1009.85 1009.90 1009.83 1009.64 1009.35 1009.01 1008.64 1008.31 1008.01 1007.78 1007.59 1007.44 1007.32 1007.24 1007.19 1007.19 1007.25 1007.37 1007.53 1007.73 1007.94 1008.14 1008.33 1008.50 1008.66 1008.85 1009.07 1009.33 1009.65 1009.98 1010.31 1010.61 1010.85 1011.01 1011.10 1011.14 1011.15 1011.17
1009.59 1009.62 1009.72 1009.86 1010.02 1010.13 1010.17 1010.10 1009.95 1009.72 1009.45 1009.18 1008.93 1008.71 1008.53 1008.39 1008.26 1008.15 1008.06 1008.00 1007.99 1008.04 1008.14 1008.29 1008.48 1008.69 1008.88 1009.06 1009.22 1009.38 1009.55 1009.76 1010.01 1010.30 1010.62 1010.93 1011.21 1011.43 1011.57 1011.64 1011.64 1011.61 1011.59
1009.72 1009.81 1009.94 1010.09 1010.24 1010.34 1010.38 1010.35 1010.24 1010.08 1009.91 1009.73 1009.58 1009.45 1009.35 1009.25 1009.15 1009.05 1008.96 1008.89 1008.86 1008.88 1008.96 1009.09 1009.27 1009.47 1009.67 1009.86 1010.04 1010.20 1010.38 1010.58 1010.81 1011.08 1011.36 1011.63 1011.87 1012.06 1012.17 1012.21 1012.19 1012.13 1012.05
1009.74 1009.89 1010.06 1010.23 1010.38 1010.50 1010.56 1010.56 1010.51 1010.43 1010.34 1010.26 1010.21 1010.16 1010.13 1010.09 1010.03 1009.96 1009.88 1009.81 1009.77 1009.78 1009.84 1009.97 1010.14 1010.34 1010.55 1010.76 1010.96 1011.14 1011.32 1011.51 1011.72 1011.94 1012.17 1012.39 1012.58 1012.71 1012.78 1012.79 1012.74 1012.65 1012.54
1009.69 1009.89 1010.09 1010.29 1010.47 1010.61 1010.70 1010.75 1010.76 1010.74 1010.73 1010.73 1010.74 1010.76 1010.79 1010.81 1010.80 1010.77 1010.73 1010.69 1010.67 1010.68 1010.75 1010.88 1011.05 1011.26 1011.49 1011.72 1011.93 1012.14 1012.33 1012.51 1012.69 1012.86 1013.03 1013.17 1013.29 1013.37 1013.39 1013.36 1013.29 1013.17 1013.02
1009.61 1009.86 1010.09 1010.32 1010.52 1010.69 1010.83 1010.92 1010.99 1011.03 1011.06 1011.11 1011.16 1011.22 1011.29 1011.35 1011.39 1011.42 1011.43 1011.44 1011.46 1011.51 1011.60 1011.74 1011.93 1012.15 1012.39 1012.64 1012.88 1013.10 1013.30 1013.48 1013.63 1013.76 1013.86 1013.94 1013.98 1014.00 1013.97 1013.90 1013.80 1013.66 1013.49
1009.57 1009.83 1010.09 1010.34 1010.57 1010.79 1010.97 1011.12 1011.23 1011.31 1011.37 1011.42 1011.48 1011.55 1011.63 1011.71 1011.79 1011.87 1011.95 1012.02 1012.11 1012.21 1012.34 1012.50 1012.70 1012.93 1013.19 1013.45 1013.71 1013.95 1014.16 1014.34 1014.47 1014.57 1014.62 1014.64 1014.63 1014.58 1014.51 1014.41 1014.29 1014.13 1013.95
1009.59 1009.86 1010.12 1010.39 1010.65 1010.92 1011.15 1011.35 1011.51 1011.61 1011.68 1011.72 1011.75 1011.79 1011.85 1011.94 1012.04 1012.17 1012.30 1012.44 1012.59 1012.75 1012.92 1013.10 1013.31 1013.55 1013.81 1014.08 1014.35 1014.61 1014.84 1015.03 1015.17 1015.25 1015.29 1015.27 1015.22 1015.13 1015.02 1014.90 1014.76 1014.59 1014.40
1009.68 1009.93 1010.19 1010.48 1010.78 1011.09 1011.38 1011.64 1011.84 1011.97 1012.03 1012.05 1012.04 1012.04 1012.06 1012.12 1012.22 1012.37 1012.55 1012.75 1012.96 1013.16 1013.36 1013.56 1013.77 1014.00 1014.24 1014.51 1014.79 1015.07 1015.33 1015.54 1015.71 1015.81 1015.84 1015.82 1015.75 1015.64 1015.52 1015.38 1015.23 1015.06 1014.88
1009.81 1010.05 1010.30 1010.59 1010.92 1011.28 1011.64 1011.96 1012.22 1012.38 1012.46 1012.45 1012.41 1012.35 1012.32 1012.34 1012.44 1012.59 1012.80 1013.03 1013.27 1013.50 1013.72 1013.92 1014.11 1014.31 1014.53 1014.79 1015.07 1015.36 1015.64 1015.90 1016.10 1016.23 1016.29 1016.29 1016.22 1016.12 1015.99 1015.84 1015.70 1015.54 1015.36
1009.94 1010.16 1010.41 1010.70 1011.07 1011.48 1011.90 1012.30 1012.62 1012.83 1012.93 1012.93 1012.86 1012.77 1012.69 1012.68 1012.75 1012.89 1013.11 1013.36 1013.61 1013.85 1014.06 1014.23 1014.39 1014.56 1014.74 1014.97 1015.23 1015.53 1015.84 1016.13 1016.38 1016.56 1016.66 1016.69 1016.64 1016.55 1016.42 1016.28 1016.14 1015.99 1015.83
1010.04 1010.25 1010.49 1010.79 1011.17 1011.63 1012.12 1012.59 1012.99 1013.28 1013.43 1013.45 1013.39 1013.28 1013.19 1013.15 1013.19 1013.32 1013.52 1013.77 1014.02 1014.24 1014.43 1014.57 1014.69 1014.80 1014.93 1015.12 1015.36 1015.65 1015.97 1016.29 1016.58 1016.81 1016.95 1017.01 1016.99 1016.91 1016.79 1016.66 1016.52 1016.39 1016.24
1010.08 1010.29 1010.52 1010.82 1011.22 1011.71 1012.25 1012.80 1013.28 1013.65 1013.87 1013.96 1013.93 1013.84 1013.75 1013.70 1013.73 1013.85 1014.03 1014.26 1014.49 1014.69 1014.85 1014.95 1015.01 1015.07 1015.15 1015.29 1015.50 1015.77 1016.09 1016.42 1016.74 1016.99 1017.16 1017.25 1017.25 1017.18 1017.06 1016.93 1016.80 1016.67 1016.54
1010.06 1010.28 1010.50 1010.79 1011.19 1011.70 1012.29 1012.89 1013.45 1013.91 1014.22 1014.38 1014.42 1014.37 1014.31 1014.27 1014.30 1014.41 1014.58 1014.79 1015.00 1015.17 1015.29 1015.35 1015.37 1015.38 1015.41 1015.50 1015.67 1015.91 1016.21 1016.54 1016.85 1017.12 1017.31 1017.40 1017.41 1017.34 1017.22 1017.09 1016.95 1016.81 1016.69
1009.99 1010.23 1010.45 1010.73 1011.12 1011.63 1012.23 1012.87 1013.49 1014.02 1014.42 1014.67 1014.78 1014.81 1014.79 1014.78 1014.82 1014.93 1015.09 1015.28 1015.47 1015.62 1015.72 1015.75 1015.74 1015.71 1015.71 1015.75 1015.88 1016.08 1016.35 1016.65 1016.95 1017.21 1017.39 1017.48 1017.48 1017.41 1017.28 1017.13 1016.98 1016.84 1016.71
Thickness
5790 5790 5787 5784 5781 5779 5777 5776 5776 5775 5775 5774 5773 5772 5771 5770 5769 5769 5768 5768 5768 5768 5767 5766 5766 5765 5763 5761 5760 5758 5758 5756 5755 5755 5755 5755 5755 5754 5753 5753 5753 5752 5751
5795 5791 5788 5784 5781 5779 5777 5775 5775 5774 5773 5772 5772 5771 5770 5768 5768 5767 5766 5766 5766 5765 5764 5764 5763 5762 5761 5759 5757 5756 5756 5754 5754 5753 5753 5753 5753 5752 5751 5751 5750 5750 5749
5795 5791 5787 5784 5780 5778 5776 5775 5773 5773 5772 5771 5770 5769 5768 5767 5766 5765 5764 5764 5763 5762 5762 5761 5761 5760 5758 5757 5756 5754 5754 5753 5752 5752 5751 5750 5750 5750 5750 5749 5749 5748 5747
5795 5790 5787 5783 5780 5777 5775 5774 5772 5771 5770 5769 5769 5768 5767 5766 5765 5764 5762 5762 5761 5760 5759 5759 5759 5758 5757 5756 5754 5753 5752 5752 5751 5749 5749 5748 5748 5748 5748 5747 5747 5746 5745
5794 5789 5785 5782 5779 5776 5774 5772 5771 5770 5769 5768 5767 5766 5765 5764 5763 5762 5761 5760 5759 5758 5757 5756 5756 5756 5755 5754 5753 5752 5751 5750 5749 5748 5747 5747 5746 5746 5746 5746 5745 5744 5744
5791 5788 5784 5781 5778 5775 5773 5771 5770 5768 5767 5766 5765 5764 5763 5762 5761 5760 5759 5758 5757 5755 5754 5754 5754 5753 5753 5752 5751 5750 5749 5748 5747 5746 5746 5745 5745 5744 5744 5744 5743 5743 5742
5789 5786 5783 5780 5777 5774 5772 5770 5768 5767 5766 5764 5763 5762 5761 5760 5759 5758 5757 5756 5755 5754 5753 5752 5751 5751 5750 5750 5749 5748 5748 5747 5746 5745 5744 5744 5744 5743 5743 5742 5742 5741 5740
5789 5785 5781 5778 5776 5773 5771 5768 5767 5765 5764 5763 5761 5761 5759 5758 5757 5756 5755 5754 5753 5752 5751 5750 5750 5749 5749 5748 5748 5747 5746 5746 5745 5744 5743 5743 5742 5742 5741 5741 5740 5740 5739
5787 5783 5780 5777 5774 5772 5770 5768 5766 5764 5763 5761 5760 5759 5758 5757 5755 5754 5753 5752 5751 5751 5750 5749 5748 5747 5747 5747 5746 5746 5745 5744 5743 5742 5742 5741 5741 5741 5740 5740 5739 5739 5738
5784 5781 5778 5775 5773 5771 5769 5767 5765 5763 5761 5760 5758 5757 5756 5755 5754 5753 5752 5751 5750 5749 5748 5747 5746 5746 5745 5745 5745 5744 5744 5743 5741 5741 5740 5740 5740 5740 5740 5740 5739 5738 5738
5780 5778 5776 5774 5772 5770 5768 5766 5764 5762 5760 5758 5757 5755 5754 5753 5752 5751 5751 5750 5749 5748 5747 5746 5745 5744 5744 5743 5743 5742 5741 5740 5740 5739 5739 5739 5739 5739 5739 5739 5739 5739 5738
5777 5776 5775 5773 5771 5769 5767 5765 5762 5760 5758 5757 5755 5754 5753 5751 5750 5749 5749 5748 5747 5747 5746 5745 5744 5743 5742 5741 5740 5740 5739 5738 5738 5737 5737 5738 5738 5738 5738 5738 5738 5739 5738
5778 5776 5774 5772 5770 5767 5765 5763 5761 5758 5756 5755 5754 5753 5751 5749 5748 5747 5746 5745 5745 5744 5743 5743 5742 5741 5740 5738 5738 5737 5737 5736 5735 5735 5736 5736 5736 5737 5737 5737 5738 5738 5738
5777 5775 5774 5771 5768 5766 5763 5761 5758 5756 5755 5753 5751 5750 5749 5747 5746 5745 5743 5743 5742 5741 5741 5740 5739 5738 5737 5737 5736 5735 5735 5734 5733 5733 5733 5734 5734 5735 5736 5736 5737 5737 5737
5777 5775 5773 5770 5767 5764 5762 5759 5756 5754 5752 5751 5749 5748 5747 5745 5744 5743 5741 5740 5740 5739 5738 5737 5736 5736 5735 5734 5734 5733 5732 5732 5732 5731 5731 5732 5732 5733 5734 5735 5736 5737 5737
5776 5774 5772 5770 5767 5764 5761 5758 5755 5753 5751 5749 5748 5746 5745 5743 5742 5741 5740 5738 5737 5736 5736 5735 5734 5733 5732 5731 5731 5731 5730 5730 5729 5729 5729 5730 5730 5731 5732 5733 5735 5736 5737
5776 5774 5771 5769 5766 5763 5760 5757 5755 5752 5751 5748 5746 5745 5743 5741 5740 5739 5738 5736 5735 5734 5734 5733 5732 5731 5730 5729 5728 5728 5728 5727 5727 5727 5727 5727 5728 5729 5730 5731 5734 5735 5735
5775 5772 5771 5769 5764 5761 5758 5756 5754 5751 5750 5747 5745 5744 5742 5740 5738 5737 5735 5734 5733 5732 5731 5730 5729 5727 5726 5725 5724 5724 5724 5724 5724 5724 5724 5725 5725 5726 5727 5729 5731 5732 5733
5775 5772 5768 5766 5763 5759 5757 5754 5752 5750 5748 5746 5744 5742 5740 5738 5737 5735 5733 5731 5731 5730 5728 5728 5726 5724 5722 5721 5721 5721 5721 5721 5720 5721 5721 5722 5722 5723 5724 5726 5727 5728 5729
5773 5770 5767 5763 5760 5757 5754 5751 5749 5747 5746 5744 5742 5740 5738 5736 5735 5733 5730 5729 5729 5727 5725 5724 5722 5721 5719 5718 5719 5718 5717 5717 5717 5717 5718 5718 5719 5720 5721 5722 5723 5724 5725
5770 5767 5764 5760 5757 5754 5751 5748 5745 5743 5742 5741 5740 5738 5737 5735 5733 5731 5729 5727 5726 5724 5722 5721 5719 5717 5715 5715 5713 5711 5713 5713 5713 5713 5714 5714 5715 5716 5717 5718 5719 5720 5721
5766 5764 5761 5758 5756 5754 5751 5747 5744 5742 5739 5738 5737 5736 5734 5733 5731 5729 5726 5725 5723 5722 5720 5718 5717 5714 5712 5712 5709 5705 5702 5704 5707 5710 5710 5711 5711 5713 5714 5714 5715 5716 5716
5762 5761 5760 5756 5753 5751 5749 5745 5741 5737 5735 5734 5732 5732 5731 5731 5729 5726 5724 5723 5721 5720 5717 5715 5714 5712 5709 5708 5707 5704 5698 5695 5698 5703 5704 5706 5707 5708 5710 5711 5712 5712 5713
5758 5758 5755 5753 5750 5747 5745 5742 5738 5734 5731 5730 5729 5729 5728 5727 5726 5724 5722 5720 5719 5717 5715 5713 5712 5710 5708 5704 5703 5702 5701 5699 5695 5694 5698 5701 5703 5704 5705 5707 5708 5708 5709
5753 5752 5751 5748 5745 5744 5741 5739 5735 5731 5729 5727 5726 5724 5723 5723 5722 5721 5719 5717 5716 5714 5712 5710 5709 5707 5705 5702 5700 5698 5697 5695 5694 5691 5690 5694 5697 5700 5701 5703 5704 5704 5704
5747 5746 5744 5742 5740 5739 5737 5735 5732 5728 5725 5722 5721 5719 5719 5718 5718 5717 5716 5714 5712 5711 5709 5707 5706 5704 5703 5701 5699 5697 5695 5693 5691 5689 5688 5688 5690 5694 5697 5699 5700 5700 5700